Vertical_Velocity
1 -1 1 -1 1 1 -0 -1 -2 -2 -2 -1 -1 -1 -3 -1 -2 4 2 6 -3 1 1 -1 1 -5 2 1 -6 -10 -12 5 11 -1 12 5 -3 -20 3 -1 -3 -1 3 -14 -1
1 2 2 -1 -4 1 1 -0 -0 -3 -3 -3 -3 -1 -2 -2 -5 2 4 2 1 -1 -1 3 -3 -3 -3 8 -7 -11 -11 7 5 -2 2 6 -6 -2 -4 -3 1 -8 0 -8 -0
1 -0 -1 -1 0 -0 -1 -0 -0 -2 0 -2 -3 -2 -0 -4 -5 1 5 -0 -4 -4 -1 0 -5 -3 -0 -5 4 0 -3 -3 13 2 -7 4 -1 4 -5 13 2 -0 -1 -2 -11
-3 -0 -3 -1 -2 -2 -0 -1 -2 -1 -0 1 -1 -2 2 -4 -10 5 3 2 -4 2 0 -2 -3 -2 -1 -5 3 -20 -4 -2 14 4 -4 -0 -0 -1 -4 13 2 2 -7 5 -0
1 -1 -1 0 0 -0 -0 -0 -2 -3 1 2 2 -0 2 -1 1 -2 2 -4 -3 2 1 -1 3 -7 2 1 -2 -8 10 -6 -1 2 -3 -3 6 2 4 4 7 2 2 -6 -1
1 0 0 0 -1 -0 -2 -0 -1 -2 -0 -2 1 2 1 -6 6 1 4 -1 -4 1 2 -1 3 -5 -1 2 -5 4 -6 6 2 5 3 -11 -3 -29 43 4 4 -2 3 -1 -1
-0 1 -4 -1 1 0 1 -2 -1 -1 -2 -1 -3 -0 1 -7 -2 1 1 2 1 -1 1 -4 -2 -1 -6 9 -8 1 -8 -4 10 10 -4 -6 -20 -10 19 11 -2 8 8 1 0
1 2 2 -3 -2 -1 1 1 -4 1 -4 -1 -5 -2 -4 -2 -1 -0 0 -4 0 2 6 -2 -2 -0 2 -1 -0 -10 -12 -2 19 1 9 0 -42 -0 7 -3 2 7 13 22 1
-1 -1 0 -2 -3 -2 1 -1 -1 -1 -1 -4 -2 2 -2 -7 -2 -3 -3 -8 -3 -0 3 -3 -1 -2 -1 1 -2 3 -17 -18 12 8 -5 1 -40 32 4 -5 -2 -6 9 -4 -4
0 0 -3 -2 -3 -1 4 -4 -2 -1 -4 -2 -2 0 0 -5 -5 2 -1 1 -2 -3 -3 0 3 5 2 -5 4 -2 -10 -7 -1 22 -6 7 -31 4 4 -5 -7 1 2 11 6
0 -2 -1 1 -4 1 1 -4 -0 0 -4 -2 1 -2 4 -4 -5 8 -7 1 2 -0 -3 -7 2 10 -0 -4 -2 -3 -6 -10 9 7 -6 2 -8 -34 4 -8 3 4 4 -1 -8
-5 7 -1 -7 -1 0 0 -1 -5 -4 1 1 1 2 1 -2 -3 -3 5 3 4 0 -1 -2 10 -8 -1 -0 -2 4 -3 5 1 3 -4 7 -29 -16 3 8 6 0 0 -5 -1
-9 2 2 -5 -1 2 1 -5 -0 -3 1 -4 -0 -1 -3 1 -4 -11 6 -5 -0 1 -10 -1 5 -3 -5 1 -10 9 -5 -5 -25 5 11 2 -51 -5 11 -10 -7 3 1 -2 3
-0 -6 -9 -5 -10 -1 -3 -4 5 -6 -5 -3 -1 -5 -6 -2 -5 1 -1 8 -6 4 -7 5 -1 -3 0 -0 -12 -4 3 -10 -9 -11 -15 23 -71 -9 8 -4 -6 6 19 3 7
-2 4 -3 -1 -4 -10 -10 2 3 -2 -12 -3 -4 4 -8 -2 0 -7 1 1 1 8 -3 8 7 1 -2 -3 -9 -18 14 7 -0 -7 2 -22 -3 -45 3 5 7 11 24 -1 14
-1 -3 3 -1 -0 -8 -8 -1 -0 0 -6 0 -3 1 -4 -4 -3 -1 -3 -9 1 -0 -8 -0 7 -8 -7 9 5 -13 -3 15 5 2 -13 -11 23 -60 6 -4 8 12 -1 4 4
1 -3 4 2 1 4 -1 -10 1 0 -9 -5 1 -5 -3 -4 2 -1 3 -2 -10 -2 3 6 10 -3 -3 -6 3 -1 -16 -29 -11 21 -10 -0 -4 -19 11 15 -2 13 6 9 18
2 -4 4 2 2 1 2 -4 0 -4 10 -7 -2 -0 -6 6 2 -3 1 -8 -10 -4 1 -3 9 15 8 -18 -19 22 -1 2 -23 -5 -6 5 -22 -9 6 -8 1 6 12 -13 6
3 -3 0 -2 3 2 -1 -6 -8 9 7 4 -4 5 -6 1 -7 4 2 -6 -10 -1 0 -14 -2 3 -2 26 5 -11 -2 3 5 -4 1 -6 -2 12 -10 7 -13 -6 9 4 8
2 2 -1 2 5 -2 -2 -2 5 -4 4 0 0 2 -6 -2 -3 -2 0 -6 -6 -7 -6 -11 -40 13 -5 -3 14 4 -12 4 6 -17 -10 -3 7 -10 4 3 -9 7 5 -3 26
-1 3 8 2 5 -2 -1 6 -2 -0 -2 3 3 3 -0 -5 -1 -4 -4 -0 -2 6 2 -3 -15 3 -7 -1 -12 20 -8 -3 -2 10 -9 5 -3 24 5 3 3 40 6 4 -5
1 8 6 3 -1 3 -2 4 1 -0 -1 1 1 -4 -5 -2 -1 -1 -1 -5 -3 -3 6 2 1 -5 -2 -1 -6 -1 4 3 -0 20 17 -3 2 3 0 -3 10 10 58 13 4
1 12 4 -5 9 2 -4 2 2 -2 -5 -5 -0 -4 -1 -4 1 -2 -3 -6 -0 -2 -1 2 8 -5 7 -0 -5 6 4 8 6 1 12 1 2 -7 -3 10 -9 4 45 8 62
1 -3 -1 1 9 -3 -0 2 -5 -3 4 -2 1 -3 -6 0 -1 -1 1 0 -1 -0 -4 -1 -1 -5 -4 1 -4 -6 7 2 -1 1 -1 -5 1 3 5 -1 3 -9 16 21 9
1 7 3 6 3 -1 0 -1 -1 -0 -0 -1 1 -5 -0 -2 -4 -1 -2 -0 -7 1 -2 -3 0 -4 -4 -2 -1 -0 3 -4 -2 -2 -10 4 -8 -3 -5 0 10 24 58 -10 6
10 3 -3 3 4 -1 -0 -1 0 3 1 -6 -4 -3 0 0 -0 -1 -1 -2 -3 -4 -4 -2 1 -2 4 -4 -0 1 -3 3 -4 -0 -1 -3 3 6 -3 -2 10 13 18 4 8
3 3 2 1 1 3 -1 1 3 -1 -0 -2 -2 -3 -0 -3 -1 -1 -4 -2 2 -4 -10 -8 -0 1 13 -2 1 -3 -2 -1 -1 0 3 1 -0 6 3 1 -4 15 -4 1 -2
Height
5801 5801 5801 5802 5802 5803 5803 5803 5803 5804 5804 5804 5805 5805 5806 5807 5806 5806 5807 5807 5806 5806 5805 5804 5804 5803 5804 5805 5804 5804 5802 5804 5810 5811 5812 5815 5813 5812 5812 5808 5808 5808 5808 5808 5809
5795 5795 5794 5793 5794 5795 5795 5795 5795 5796 5797 5798 5798 5798 5798 5799 5798 5799 5800 5800 5800 5799 5798 5798 5798 5797 5796 5798 5795 5795 5795 5796 5801 5800 5801 5804 5804 5806 5802 5801 5801 5799 5800 5801 5802
5787 5788 5788 5788 5787 5788 5789 5788 5789 5788 5789 5790 5791 5791 5792 5792 5793 5792 5793 5795 5794 5792 5791 5790 5789 5789 5789 5788 5787 5787 5784 5788 5788 5789 5790 5791 5793 5797 5794 5793 5792 5792 5792 5793 5792
5780 5780 5781 5781 5781 5780 5780 5781 5781 5781 5781 5782 5783 5783 5784 5784 5785 5786 5786 5786 5785 5784 5783 5782 5780 5779 5779 5778 5776 5775 5776 5776 5776 5776 5777 5778 5782 5783 5786 5786 5785 5783 5782 5782 5785
5771 5772 5772 5773 5774 5773 5773 5773 5773 5773 5774 5774 5775 5776 5776 5776 5777 5777 5776 5776 5776 5775 5773 5772 5771 5769 5769 5767 5766 5766 5767 5765 5763 5763 5763 5765 5768 5771 5774 5775 5779 5779 5777 5774 5777
5762 5763 5764 5766 5766 5766 5766 5765 5765 5765 5766 5766 5766 5766 5767 5768 5769 5768 5767 5766 5764 5764 5762 5761 5760 5759 5758 5756 5754 5755 5755 5756 5754 5753 5754 5753 5757 5756 5761 5765 5767 5767 5767 5767 5768
5753 5753 5755 5756 5756 5757 5757 5757 5756 5756 5757 5757 5757 5757 5758 5758 5759 5759 5758 5757 5755 5753 5751 5749 5749 5748 5747 5745 5742 5744 5745 5745 5744 5743 5742 5736 5744 5744 5750 5753 5755 5756 5757 5757 5757
5742 5743 5744 5745 5746 5747 5747 5748 5749 5747 5748 5748 5749 5749 5749 5748 5747 5747 5746 5745 5744 5743 5740 5737 5737 5737 5736 5734 5732 5732 5734 5736 5735 5730 5728 5722 5731 5732 5734 5735 5739 5744 5745 5743 5743
5729 5732 5733 5735 5736 5737 5737 5739 5739 5739 5740 5742 5743 5742 5740 5739 5739 5738 5737 5736 5734 5732 5730 5727 5727 5725 5723 5722 5721 5721 5722 5722 5725 5717 5716 5710 5716 5723 5721 5719 5720 5725 5732 5730 5731
5717 5720 5722 5723 5725 5727 5728 5728 5729 5730 5730 5731 5732 5735 5732 5729 5729 5728 5727 5726 5723 5720 5718 5716 5716 5714 5712 5711 5710 5708 5708 5710 5713 5711 5699 5700 5702 5715 5710 5705 5710 5714 5717 5721 5722
5707 5708 5711 5712 5715 5718 5719 5720 5722 5721 5719 5720 5721 5721 5721 5719 5718 5718 5715 5714 5712 5711 5709 5706 5706 5704 5702 5700 5699 5697 5695 5696 5700 5700 5685 5689 5691 5701 5701 5694 5697 5701 5702 5702 5704
5699 5699 5699 5700 5704 5707 5709 5710 5710 5709 5709 5708 5708 5709 5708 5707 5706 5705 5705 5704 5701 5699 5698 5698 5696 5693 5691 5689 5689 5687 5683 5685 5691 5688 5676 5678 5679 5687 5694 5687 5687 5688 5687 5688 5692
5689 5691 5692 5692 5694 5697 5698 5699 5698 5697 5699 5699 5698 5698 5696 5696 5694 5693 5695 5692 5691 5690 5689 5688 5687 5683 5679 5676 5675 5677 5667 5669 5673 5673 5671 5663 5667 5676 5682 5678 5676 5675 5677 5679 5680
5677 5680 5681 5683 5688 5687 5688 5689 5688 5686 5687 5687 5687 5685 5685 5684 5683 5682 5683 5684 5682 5681 5679 5679 5674 5671 5669 5666 5661 5668 5655 5655 5656 5657 5658 5653 5648 5667 5663 5666 5666 5666 5667 5666 5667
5666 5667 5670 5672 5675 5678 5675 5677 5678 5677 5675 5676 5674 5674 5674 5675 5673 5672 5673 5673 5672 5672 5671 5669 5665 5662 5659 5654 5647 5654 5647 5643 5641 5639 5636 5652 5631 5649 5650 5654 5653 5652 5653 5654 5655
5654 5656 5657 5662 5662 5664 5665 5666 5669 5669 5665 5666 5665 5666 5665 5664 5663 5663 5662 5661 5661 5660 5657 5657 5654 5648 5647 5644 5637 5634 5634 5632 5628 5625 5618 5632 5627 5619 5637 5635 5632 5634 5637 5641 5638
5641 5644 5647 5649 5650 5654 5653 5655 5657 5656 5656 5658 5659 5657 5655 5655 5653 5654 5654 5653 5651 5650 5649 5648 5645 5636 5633 5629 5624 5618 5613 5615 5610 5609 5603 5613 5605 5606 5618 5614 5610 5613 5620 5626 5630
5628 5633 5635 5636 5638 5641 5643 5644 5645 5645 5646 5648 5647 5647 5647 5647 5646 5645 5644 5642 5639 5638 5636 5636 5636 5627 5616 5608 5607 5605 5601 5597 5588 5591 5589 5595 5590 5602 5600 5594 5597 5597 5603 5612 5617
5616 5620 5623 5626 5629 5630 5632 5633 5635 5637 5638 5635 5636 5636 5636 5638 5637 5635 5633 5630 5626 5624 5621 5617 5622 5612 5603 5597 5591 5591 5587 5582 5577 5578 5577 5584 5586 5587 5584 5587 5587 5588 5591 5599 5607
5604 5608 5612 5616 5618 5620 5622 5624 5628 5628 5628 5628 5628 5630 5629 5629 5627 5625 5620 5618 5614 5611 5604 5598 5603 5599 5585 5576 5574 5565 5569 5567 5570 5568 5571 5574 5572 5572 5574 5578 5581 5583 5583 5586 5594
5595 5597 5601 5606 5608 5610 5613 5616 5619 5620 5621 5621 5620 5620 5622 5622 5620 5616 5612 5608 5603 5599 5591 5583 5577 5583 5567 5560 5556 5560 5553 5557 5563 5565 5563 5563 5565 5565 5567 5569 5573 5572 5576 5578 5582
5583 5587 5591 5593 5600 5601 5604 5608 5611 5611 5615 5615 5615 5615 5614 5613 5610 5606 5602 5596 5591 5585 5578 5569 5564 5562 5561 5556 5553 5552 5552 5555 5557 5561 5560 5558 5559 5558 5560 5560 5560 5562 5562 5569 5576
5573 5578 5580 5585 5589 5592 5596 5602 5605 5606 5608 5607 5607 5607 5606 5604 5601 5596 5590 5584 5578 5572 5565 5561 5559 5557 5556 5556 5554 5554 5553 5553 5553 5553 5553 5552 5553 5552 5553 5555 5556 5556 5552 5561 5561
5565 5567 5571 5576 5582 5585 5591 5595 5597 5600 5601 5601 5601 5600 5598 5594 5590 5585 5579 5572 5566 5561 5559 5558 5557 5556 5554 5552 5551 5550 5551 5551 5549 5547 5546 5549 5549 5547 5547 5551 5554 5552 5551 5555 5564
5554 5560 5563 5568 5574 5580 5586 5590 5592 5595 5595 5594 5593 5592 5589 5585 5580 5574 5568 5564 5559 5557 5558 5558 5557 5554 5551 5550 5549 5549 5547 5546 5546 5545 5545 5548 5545 5544 5547 5552 5551 5551 5547 5547 5553
5546 5552 5559 5566 5571 5576 5581 5585 5588 5589 5589 5587 5586 5584 5581 5577 5572 5568 5562 5560 5557 5556 5556 5556 5555 5552 5549 5546 5546 5545 5544 5543 5542 5542 5542 5541 5543 5542 5546 5547 5552 5548 5545 5546 5546
5540 5547 5555 5562 5569 5575 5578 5581 5583 5583 5583 5582 5579 5576 5573 5570 5565 5560 5557 5557 5555 5555 5555 5553 5550 5549 5548 5545 5544 5544 5541 5539 5540 5539 5539 5538 5539 5539 5543 5543 5545 5546 5545 5545 5545